Time,TemperatureF,DewpointF,PressureIn,WindDirection,WindDirectionDegrees,WindSpeedMPH,WindSpeedGustMPH,Humidity,HourlyPrecipIn,Conditions,Clouds,dailyrainin,SoftwareType,DateUTC
2013-05-08 00:01:00,70.5,66.8,29.94,SSE,148,11.0,16.0,88,0.00,,---,0.00,VWS V14.01,2013-05-08 05:01:00,
2013-05-08 00:06:00,70.6,66.6,29.95,South,180,10.0,10.0,87,0.00,,---,0.00,VWS V14.01,2013-05-08 05:06:00,
2013-05-08 00:11:00,70.5,66.4,29.95,South,171,8.0,9.0,87,0.00,,---,0.00,VWS V14.01,2013-05-08 05:11:00,
2013-05-08 00:16:00,70.5,66.4,29.95,South,178,10.0,13.0,87,0.00,,---,0.00,VWS V14.01,2013-05-08 05:16:00,
2013-05-08 00:21:00,70.5,66.4,29.95,SSE,160,6.0,9.0,87,0.00,,---,0.00,VWS V14.01,2013-05-08 05:21:00,
2013-05-08 00:26:00,70.4,66.3,29.95,South,182,8.0,10.0,87,0.00,,---,0.00,VWS V14.01,2013-05-08 05:26:00,
2013-05-08 00:31:00,70.4,66.3,29.95,SSE,153,6.0,8.0,87,0.00,,---,0.00,VWS V14.01,2013-05-08 05:31:00,
2013-05-08 00:36:00,70.3,66.2,29.95,SSE,159,2.0,6.0,87,0.00,,---,0.00,VWS V14.01,2013-05-08 05:36:00,
2013-05-08 00:41:00,70.3,66.6,29.95,South,171,7.0,10.0,88,0.00,,---,0.00,VWS V14.01,2013-05-08 05:41:00,
2013-05-08 00:46:00,70.2,66.5,29.95,South,182,3.0,9.0,88,0.00,,---,0.00,VWS V14.01,2013-05-08 05:46:00,
2013-05-08 00:51:00,70.1,66.4,29.95,SSE,149,6.0,8.0,88,0.00,,---,0.00,VWS V14.01,2013-05-08 05:51:00,
2013-05-08 00:56:00,70.1,66.4,29.95,SSE,165,5.0,6.0,88,0.00,,---,0.00,VWS V14.01,2013-05-08 05:56:00,
2013-05-08 01:01:00,70.0,66.3,29.95,South,175,7.0,7.0,88,0.00,,---,0.00,VWS V14.01,2013-05-08 06:01:00,
2013-05-08 01:05:00,69.9,66.2,29.95,SSE,164,6.0,6.0,88,0.00,,---,0.00,VWS V14.01,2013-05-08 06:05:00,
2013-05-08 01:10:00,69.9,66.5,29.95,SSE,163,3.0,6.0,89,0.00,,---,0.00,VWS V14.01,2013-05-08 06:10:00,
2013-05-08 01:15:00,69.8,66.4,29.95,South,175,4.0,6.0,89,0.00,,---,0.00,VWS V14.01,2013-05-08 06:15:00,
2013-05-08 01:20:00,69.7,66.3,29.95,South,172,5.0,5.0,89,0.00,,---,0.00,VWS V14.01,2013-05-08 06:20:00,
2013-05-08 01:25:00,69.6,66.2,29.95,SSE,164,4.0,9.0,89,0.00,,---,0.00,VWS V14.01,2013-05-08 06:25:00,
2013-05-08 01:30:00,69.5,66.1,29.94,SSE,163,5.0,5.0,89,0.00,,---,0.00,VWS V14.01,2013-05-08 06:30:00,
2013-05-08 01:35:00,69.4,66.0,29.94,South,173,7.0,7.0,89,0.00,,---,0.00,VWS V14.01,2013-05-08 06:35:00,
2013-05-08 01:40:00,69.4,66.0,29.94,SSE,153,4.0,4.0,89,0.00,,---,0.00,VWS V14.01,2013-05-08 06:40:00,
2013-05-08 01:45:00,69.3,65.9,29.94,SSE,165,6.0,10.0,89,0.00,,---,0.00,VWS V14.01,2013-05-08 06:45:00,
2013-05-08 01:50:00,69.3,66.2,29.94,South,169,6.0,7.0,90,0.00,,---,0.00,VWS V14.01,2013-05-08 06:50:00,
2013-05-08 01:55:00,69.2,66.2,29.93,SSE,156,6.0,6.0,90,0.00,,---,0.00,VWS V14.01,2013-05-08 06:55:00,
2013-05-08 02:00:00,69.2,66.2,29.93,SSE,149,6.0,9.0,90,0.00,,---,0.00,VWS V14.01,2013-05-08 07:00:00,
2013-05-08 02:05:00,69.2,66.2,29.93,SSE,157,4.0,4.0,90,0.00,,---,0.00,VWS V14.01,2013-05-08 07:05:00,
2013-05-08 02:10:00,69.1,66.1,29.93,SSE,163,2.0,3.0,90,0.00,,---,0.00,VWS V14.01,2013-05-08 07:10:00,
2013-05-08 02:15:00,69.1,66.1,29.93,SSE,163,3.0,4.0,90,0.00,,---,0.00,VWS V14.01,2013-05-08 07:15:00,
2013-05-08 02:20:00,69.0,65.9,29.93,SSE,155,4.0,5.0,90,0.00,,---,0.00,VWS V14.01,2013-05-08 07:20:00,
2013-05-08 02:25:00,69.0,65.9,29.93,SSE,152,4.0,7.0,90,0.00,,---,0.00,VWS V14.01,2013-05-08 07:25:00,
2013-05-08 02:30:00,69.0,66.3,29.93,SSE,165,3.0,4.0,91,0.00,,---,0.00,VWS V14.01,2013-05-08 07:30:00,
2013-05-08 02:35:00,69.0,66.3,29.92,SSE,162,1.0,2.0,91,0.00,,---,0.00,VWS V14.01,2013-05-08 07:35:00,
2013-05-08 02:40:00,69.0,66.3,29.92,SSE,167,4.0,4.0,91,0.00,,---,0.00,VWS V14.01,2013-05-08 07:40:00,
2013-05-08 02:45:00,69.0,66.3,29.92,South,169,4.0,5.0,91,0.00,,---,0.00,VWS V14.01,2013-05-08 07:45:00,
2013-05-08 02:50:00,69.1,66.4,29.92,SE,141,2.0,4.0,91,0.00,,---,0.00,VWS V14.01,2013-05-08 07:50:00,
2013-05-08 02:55:00,69.2,66.5,29.92,SSE,163,2.0,5.0,91,0.00,,---,0.00,VWS V14.01,2013-05-08 07:55:00,
2013-05-08 03:00:00,69.2,66.5,29.92,SSE,155,3.0,4.0,91,0.00,,---,0.00,VWS V14.01,2013-05-08 08:00:00,
2013-05-08 03:05:00,69.3,66.6,29.91,SE,141,4.0,4.0,91,0.00,,---,0.00,VWS V14.01,2013-05-08 08:05:00,
2013-05-08 03:10:00,69.3,66.6,29.91,SE,142,4.0,4.0,91,0.00,,---,0.00,VWS V14.01,2013-05-08 08:10:00,
2013-05-08 03:15:00,69.3,66.6,29.91,SE,144,6.0,6.0,91,0.00,,---,0.00,VWS V14.01,2013-05-08 08:15:00,
2013-05-08 03:20:00,69.3,66.6,29.91,SSE,160,2.0,3.0,91,0.00,,---,0.00,VWS V14.01,2013-05-08 08:20:00,
2013-05-08 03:25:00,69.3,66.6,29.91,SE,138,3.0,7.0,91,0.00,,---,0.00,VWS V14.01,2013-05-08 08:25:00,
2013-05-08 03:30:00,69.3,66.6,29.91,SSE,150,5.0,5.0,91,0.00,,---,0.00,VWS V14.01,2013-05-08 08:30:00,
2013-05-08 03:35:00,69.3,66.6,29.90,SSE,159,8.0,10.0,91,0.00,,---,0.00,VWS V14.01,2013-05-08 08:35:00,
2013-05-08 03:40:00,69.3,66.9,29.90,SE,146,2.0,2.0,92,0.00,,---,0.00,VWS V14.01,2013-05-08 08:40:00,
2013-05-08 03:45:00,69.3,66.9,29.90,SSE,152,5.0,7.0,92,0.00,,---,0.00,VWS V14.01,2013-05-08 08:45:00,
2013-05-08 03:50:00,69.3,66.9,29.90,SSE,150,4.0,4.0,92,0.00,,---,0.00,VWS V14.01,2013-05-08 08:50:00,
2013-05-08 03:55:00,69.2,66.8,29.90,SE,136,3.0,6.0,92,0.00,,---,0.00,VWS V14.01,2013-05-08 08:55:00,
2013-05-08 04:00:00,69.2,66.8,29.90,SSE,161,5.0,7.0,92,0.00,,---,0.00,VWS V14.01,2013-05-08 09:00:00,
2013-05-08 04:05:00,69.1,66.7,29.90,South,171,4.0,6.0,92,0.00,,---,0.00,VWS V14.01,2013-05-08 09:05:00,
2013-05-08 04:10:00,69.1,66.7,29.90,SSE,157,3.0,7.0,92,0.00,,---,0.00,VWS V14.01,2013-05-08 09:10:00,
2013-05-08 04:15:00,69.0,66.6,29.90,SSE,167,6.0,6.0,92,0.00,,---,0.00,VWS V14.01,2013-05-08 09:15:00,
2013-05-08 04:20:00,69.0,66.6,29.90,SSE,161,5.0,5.0,92,0.00,,---,0.00,VWS V14.01,2013-05-08 09:20:00,
2013-05-08 04:25:00,68.9,66.5,29.90,SSE,159,4.0,5.0,92,0.00,,---,0.00,VWS V14.01,2013-05-08 09:25:00,
2013-05-08 04:30:00,68.8,66.4,29.90,SSE,165,3.0,8.0,92,0.00,,---,0.00,VWS V14.01,2013-05-08 09:30:00,
2013-05-08 04:35:00,68.7,66.3,29.91,SSE,164,4.0,5.0,92,0.00,,---,0.00,VWS V14.01,2013-05-08 09:35:00,
2013-05-08 04:40:00,68.7,66.3,29.91,South,169,3.0,7.0,92,0.00,,---,0.00,VWS V14.01,2013-05-08 09:40:00,
2013-05-08 04:45:00,68.8,66.7,29.91,SSE,163,2.0,7.0,93,0.00,,---,0.00,VWS V14.01,2013-05-08 09:45:00,
2013-05-08 04:50:00,68.8,66.7,29.91,SSE,160,4.0,6.0,93,0.00,,---,0.00,VWS V14.01,2013-05-08 09:50:00,
2013-05-08 04:55:00,68.9,66.8,29.91,South,169,6.0,11.0,93,0.00,,---,0.00,VWS V14.01,2013-05-08 09:55:00,
2013-05-08 05:00:00,68.9,66.8,29.91,SSE,157,3.0,6.0,93,0.00,,---,0.00,VWS V14.01,2013-05-08 10:00:00,
2013-05-08 05:05:00,68.9,66.8,29.91,SSE,155,2.0,5.0,93,0.00,,---,0.00,VWS V14.01,2013-05-08 10:05:00,
2013-05-08 05:10:00,68.8,66.7,29.91,SSE,167,4.0,6.0,93,0.00,,---,0.00,VWS V14.01,2013-05-08 10:10:00,
2013-05-08 05:15:00,68.8,66.7,29.91,SSE,165,3.0,4.0,93,0.00,,---,0.00,VWS V14.01,2013-05-08 10:15:00,
2013-05-08 05:20:00,68.9,66.8,29.92,SSE,164,5.0,6.0,93,0.00,,---,0.00,VWS V14.01,2013-05-08 10:20:00,
2013-05-08 05:25:00,68.8,66.7,29.92,SSE,161,3.0,5.0,93,0.00,,---,0.00,VWS V14.01,2013-05-08 10:25:00,
2013-05-08 05:30:00,68.8,66.7,29.92,SSE,154,0.0,2.0,93,0.00,,---,0.00,VWS V14.01,2013-05-08 10:30:00,
2013-05-08 05:35:00,68.7,66.6,29.92,SSE,154,1.0,1.0,93,0.00,,---,0.00,VWS V14.01,2013-05-08 10:35:00,
2013-05-08 05:40:00,68.6,66.5,29.92,SSE,154,0.0,1.0,93,0.00,,---,0.00,VWS V14.01,2013-05-08 10:40:00,
2013-05-08 05:45:00,68.5,66.4,29.92,SSE,154,0.0,1.0,93,0.00,,---,0.00,VWS V14.01,2013-05-08 10:45:00,
2013-05-08 05:50:00,68.5,66.4,29.92,SSE,153,0.0,3.0,93,0.00,,---,0.00,VWS V14.01,2013-05-08 10:50:00,
2013-05-08 05:55:00,68.5,66.4,29.92,SE,144,3.0,5.0,93,0.00,,---,0.00,VWS V14.01,2013-05-08 10:55:00,
2013-05-08 06:00:00,68.6,66.5,29.93,SSE,148,5.0,6.0,93,0.00,,---,0.00,VWS V14.01,2013-05-08 11:00:00,
2013-05-08 06:05:00,68.9,66.8,29.93,SSE,157,4.0,6.0,93,0.00,,---,0.00,VWS V14.01,2013-05-08 11:05:00,
2013-05-08 06:10:00,69.0,66.9,29.93,SSE,157,5.0,6.0,93,0.00,,---,0.00,VWS V14.01,2013-05-08 11:10:00,
2013-05-08 06:15:00,69.2,67.1,29.93,SSE,148,6.0,9.0,93,0.00,,---,0.00,VWS V14.01,2013-05-08 11:15:00,
2013-05-08 06:20:00,69.3,67.2,29.93,SSE,165,7.0,9.0,93,0.00,,---,0.00,VWS V14.01,2013-05-08 11:20:00,
2013-05-08 06:25:00,69.4,67.3,29.93,SSE,155,5.0,7.0,93,0.00,,---,0.00,VWS V14.01,2013-05-08 11:25:00,
2013-05-08 06:30:00,69.5,67.4,29.93,SSE,160,12.0,12.0,93,0.00,,---,0.00,VWS V14.01,2013-05-08 11:30:00,
2013-05-08 06:35:00,69.6,67.2,29.93,SSE,165,7.0,8.0,92,0.00,,---,0.00,VWS V14.01,2013-05-08 11:35:00,
2013-05-08 06:40:00,69.7,67.3,29.93,South,169,6.0,9.0,92,0.00,,---,0.00,VWS V14.01,2013-05-08 11:40:00,
2013-05-08 06:45:00,69.7,67.3,29.94,South,176,9.0,9.0,92,0.00,,---,0.00,VWS V14.01,2013-05-08 11:45:00,
2013-05-08 06:50:00,69.7,67.0,29.94,SSE,157,5.0,6.0,91,0.00,,---,0.00,VWS V14.01,2013-05-08 11:50:00,
2013-05-08 06:55:00,69.7,67.0,29.94,SSE,161,3.0,3.0,91,0.00,,---,0.00,VWS V14.01,2013-05-08 11:55:00,
2013-05-08 07:00:00,69.7,67.0,29.94,SE,145,4.0,4.0,91,0.00,,---,0.00,VWS V14.01,2013-05-08 12:00:00,
2013-05-08 07:05:00,69.6,66.9,29.94,SE,145,0.0,0.0,91,0.00,,---,0.00,VWS V14.01,2013-05-08 12:05:00,
2013-05-08 07:10:00,69.5,66.8,29.94,SSE,148,3.0,3.0,91,0.00,,---,0.00,VWS V14.01,2013-05-08 12:10:00,
2013-05-08 07:15:00,69.6,67.2,29.94,SSE,149,2.0,3.0,92,0.00,,---,0.00,VWS V14.01,2013-05-08 12:15:00,
2013-05-08 07:20:00,69.7,67.3,29.95,SSE,150,1.0,6.0,92,0.00,,---,0.00,VWS V14.01,2013-05-08 12:20:00,
2013-05-08 07:24:00,69.8,67.4,29.95,SSE,156,10.0,10.0,92,0.00,,---,0.00,VWS V14.01,2013-05-08 12:24:00,
2013-05-08 07:29:00,69.9,67.5,29.95,SSE,163,4.0,4.0,92,0.00,,---,0.00,VWS V14.01,2013-05-08 12:29:00,
2013-05-08 07:34:00,70.2,67.8,29.95,SSE,163,3.0,4.0,92,0.00,,---,0.00,VWS V14.01,2013-05-08 12:34:00,
2013-05-08 07:39:00,70.4,68.0,29.96,South,170,1.0,4.0,92,0.00,,---,0.00,VWS V14.01,2013-05-08 12:39:00,
2013-05-08 07:44:00,70.6,68.2,29.96,SSE,159,5.0,7.0,92,0.00,,---,0.00,VWS V14.01,2013-05-08 12:44:00,
2013-05-08 07:49:00,70.7,68.3,29.96,SSE,157,6.0,8.0,92,0.00,,---,0.00,VWS V14.01,2013-05-08 12:49:00,
2013-05-08 07:54:00,70.8,68.1,29.96,South,178,7.0,7.0,91,0.00,,---,0.00,VWS V14.01,2013-05-08 12:54:00,
2013-05-08 07:59:00,70.9,68.2,29.96,SSE,165,6.0,8.0,91,0.00,,---,0.00,VWS V14.01,2013-05-08 12:59:00,
2013-05-08 08:04:00,71.0,68.2,29.96,South,179,11.0,11.0,91,0.00,,---,0.00,VWS V14.01,2013-05-08 13:04:00,
2013-05-08 08:09:00,71.2,68.1,29.96,ESE,115,6.0,8.0,90,0.00,,---,0.00,VWS V14.01,2013-05-08 13:09:00,
2013-05-08 08:14:00,71.5,68.4,29.96,SSE,148,10.0,10.0,90,0.00,,---,0.00,VWS V14.01,2013-05-08 13:14:00,
2013-05-08 08:19:00,71.8,68.4,29.96,SSE,153,6.0,7.0,89,0.00,,---,0.00,VWS V14.01,2013-05-08 13:19:00,
2013-05-08 08:24:00,72.3,68.6,29.96,SSE,152,5.0,9.0,88,0.00,,---,0.00,VWS V14.01,2013-05-08 13:24:00,
2013-05-08 08:29:00,72.7,68.6,29.96,SSE,159,3.0,6.0,87,0.00,,---,0.00,VWS V14.01,2013-05-08 13:29:00,
2013-05-08 08:34:00,73.0,68.6,29.97,SE,145,5.0,7.0,86,0.00,,---,0.00,VWS V14.01,2013-05-08 13:34:00,
2013-05-08 08:39:00,73.2,68.4,29.97,SE,138,10.0,10.0,85,0.00,,---,0.00,VWS V14.01,2013-05-08 13:39:00,
2013-05-08 08:44:00,73.4,68.6,29.97,SSE,165,12.0,12.0,85,0.00,,---,0.00,VWS V14.01,2013-05-08 13:44:00,
2013-05-08 08:49:00,73.3,67.8,29.98,SSE,159,12.0,12.0,83,0.00,,---,0.00,VWS V14.01,2013-05-08 13:49:00,
2013-05-08 08:54:00,73.4,67.6,29.98,SSE,167,12.0,12.0,82,0.00,,---,0.00,VWS V14.01,2013-05-08 13:54:00,
2013-05-08 08:59:00,73.6,67.1,29.98,South,170,14.0,14.0,80,0.00,,---,0.00,VWS V14.01,2013-05-08 13:59:00,
2013-05-08 09:04:00,74.1,67.9,29.98,South,173,13.0,13.0,81,0.00,,---,0.00,VWS V14.01,2013-05-08 14:04:00,
2013-05-08 09:09:00,74.7,68.1,29.98,SE,141,12.0,15.0,80,0.00,,---,0.00,VWS V14.01,2013-05-08 14:09:00,
2013-05-08 09:14:00,75.0,67.7,29.98,South,174,9.0,11.0,78,0.00,,---,0.00,VWS V14.01,2013-05-08 14:14:00,
2013-05-08 09:19:00,75.3,67.2,29.98,SSE,165,10.0,11.0,76,0.00,,---,0.00,VWS V14.01,2013-05-08 14:19:00,
2013-05-08 09:24:00,75.3,67.2,29.98,South,182,10.0,10.0,76,0.00,,---,0.00,VWS V14.01,2013-05-08 14:24:00,
2013-05-08 09:29:00,75.5,67.4,29.98,SSE,161,10.0,13.0,76,0.00,,---,0.00,VWS V14.01,2013-05-08 14:29:00,
2013-05-08 09:34:00,75.5,67.0,29.98,South,172,11.0,11.0,75,0.00,,---,0.00,VWS V14.01,2013-05-08 14:34:00,
2013-05-08 09:39:00,75.9,67.0,29.98,SSE,152,10.0,13.0,74,0.00,,---,0.00,VWS V14.01,2013-05-08 14:39:00,
2013-05-08 09:44:00,75.8,66.5,29.98,SSE,147,9.0,11.0,73,0.00,,---,0.00,VWS V14.01,2013-05-08 14:44:00,
2013-05-08 09:49:00,75.7,66.8,29.98,South,169,9.0,9.0,74,0.00,,---,0.00,VWS V14.01,2013-05-08 14:49:00,
2013-05-08 09:54:00,76.4,67.9,29.98,SE,134,15.0,15.0,75,0.00,,---,0.00,VWS V14.01,2013-05-08 14:54:00,
2013-05-08 09:59:00,76.7,67.4,29.98,SSE,163,12.0,12.0,73,0.00,,---,0.00,VWS V14.01,2013-05-08 14:59:00,
2013-05-08 10:04:00,77.1,67.8,29.98,SSE,155,9.0,10.0,73,0.00,,---,0.00,VWS V14.01,2013-05-08 15:04:00,
2013-05-08 10:09:00,77.3,67.6,29.98,SE,137,12.0,12.0,72,0.00,,---,0.00,VWS V14.01,2013-05-08 15:09:00,
2013-05-08 10:14:00,77.7,67.6,29.98,SSE,163,13.0,13.0,71,0.00,,---,0.00,VWS V14.01,2013-05-08 15:14:00,
2013-05-08 10:19:00,77.8,67.7,29.98,East,101,11.0,11.0,71,0.00,,---,0.00,VWS V14.01,2013-05-08 15:19:00,
2013-05-08 10:24:00,77.6,67.5,29.98,SSE,156,10.0,17.0,71,0.00,,---,0.00,VWS V14.01,2013-05-08 15:24:00,
2013-05-08 10:29:00,77.6,67.9,29.98,SE,134,11.0,15.0,72,0.00,,---,0.00,VWS V14.01,2013-05-08 15:29:00,
2013-05-08 10:34:00,77.8,68.1,29.98,SSE,151,14.0,15.0,72,0.00,,---,0.00,VWS V14.01,2013-05-08 15:34:00,
2013-05-08 10:39:00,78.1,68.3,29.98,SSE,155,11.0,16.0,72,0.00,,---,0.00,VWS V14.01,2013-05-08 15:39:00,
2013-05-08 10:44:00,77.8,67.7,29.98,SSE,159,9.0,14.0,71,0.00,,---,0.00,VWS V14.01,2013-05-08 15:44:00,
2013-05-08 10:49:00,78.0,68.2,29.98,SSE,156,15.0,18.0,72,0.00,,---,0.00,VWS V14.01,2013-05-08 15:49:00,
2013-05-08 10:54:00,78.5,67.9,29.98,SE,140,15.0,16.0,70,0.00,,---,0.00,VWS V14.01,2013-05-08 15:54:00,
2013-05-08 10:59:00,78.3,68.1,29.98,South,170,12.0,14.0,71,0.00,,---,0.00,VWS V14.01,2013-05-08 15:59:00,
2013-05-08 11:04:00,78.4,68.2,29.98,ESE,113,13.0,14.0,71,0.00,,---,0.00,VWS V14.01,2013-05-08 16:04:00,
2013-05-08 11:09:00,78.5,68.3,29.98,South,169,10.0,15.0,71,0.00,,---,0.00,VWS V14.01,2013-05-08 16:09:00,
2013-05-08 11:14:00,78.5,68.3,29.98,SE,137,12.0,16.0,71,0.00,,---,0.00,VWS V14.01,2013-05-08 16:14:00,
2013-05-08 11:19:00,78.6,68.8,29.98,SSE,160,10.0,15.0,72,0.00,,---,0.00,VWS V14.01,2013-05-08 16:19:00,
2013-05-08 11:24:00,78.8,69.0,29.98,South,172,12.0,13.0,72,0.00,,---,0.00,VWS V14.01,2013-05-08 16:24:00,
2013-05-08 11:29:00,79.2,69.0,29.97,SSE,149,12.0,16.0,71,0.00,,---,0.00,VWS V14.01,2013-05-08 16:29:00,
2013-05-08 11:34:00,79.6,69.4,29.97,SE,142,13.0,13.0,71,0.00,,---,0.00,VWS V14.01,2013-05-08 16:34:00,
2013-05-08 11:39:00,79.1,68.5,29.97,ESE,119,13.0,15.0,70,0.00,,---,0.00,VWS V14.01,2013-05-08 16:39:00,
2013-05-08 11:44:00,78.4,68.6,29.97,ESE,113,13.0,15.0,72,0.00,,---,0.00,VWS V14.01,2013-05-08 16:44:00,
2013-05-08 11:49:00,78.7,68.9,29.97,SSE,150,6.0,20.0,72,0.00,,---,0.00,VWS V14.01,2013-05-08 16:49:00,
2013-05-08 11:54:00,78.9,69.5,29.97,SSE,159,13.0,14.0,73,0.00,,---,0.00,VWS V14.01,2013-05-08 16:54:00,
2013-05-08 11:59:00,79.3,69.1,29.97,SSE,167,17.0,17.0,71,0.00,,---,0.00,VWS V14.01,2013-05-08 16:59:00,
2013-05-08 12:04:00,79.4,69.2,29.97,SSE,151,13.0,16.0,71,0.00,,---,0.00,VWS V14.01,2013-05-08 17:04:00,
2013-05-08 12:09:00,79.2,69.0,29.97,SE,126,10.0,19.0,71,0.00,,---,0.00,VWS V14.01,2013-05-08 17:09:00,
2013-05-08 12:14:00,78.8,68.6,29.97,SE,137,12.0,12.0,71,0.00,,---,0.00,VWS V14.01,2013-05-08 17:14:00,
2013-05-08 12:19:00,79.1,69.3,29.97,SE,146,11.0,16.0,72,0.00,,---,0.00,VWS V14.01,2013-05-08 17:19:00,
2013-05-08 12:24:00,79.6,69.4,29.96,SSE,155,13.0,13.0,71,0.00,,---,0.00,VWS V14.01,2013-05-08 17:24:00,
2013-05-08 12:29:00,79.8,69.6,29.96,SSE,148,8.0,15.0,71,0.00,,---,0.00,VWS V14.01,2013-05-08 17:29:00,
2013-05-08 12:34:00,79.4,69.2,29.96,SE,129,13.0,15.0,71,0.00,,---,0.00,VWS V14.01,2013-05-08 17:34:00,
2013-05-08 12:39:00,79.2,69.4,29.96,SSE,147,13.0,19.0,72,0.00,,---,0.00,VWS V14.01,2013-05-08 17:39:00,
2013-05-08 12:44:00,79.3,69.1,29.96,SSE,148,14.0,16.0,71,0.00,,---,0.00,VWS V14.01,2013-05-08 17:44:00,
2013-05-08 12:49:00,79.4,68.8,29.95,SE,145,14.0,18.0,70,0.00,,---,0.00,VWS V14.01,2013-05-08 17:49:00,
2013-05-08 12:54:00,79.4,68.8,29.95,SSE,153,11.0,18.0,70,0.00,,---,0.00,VWS V14.01,2013-05-08 17:54:00,
2013-05-08 12:59:00,79.2,69.4,29.95,SE,135,12.0,13.0,72,0.00,,---,0.00,VWS V14.01,2013-05-08 17:59:00,
2013-05-08 13:04:00,79.4,68.8,29.95,SE,140,11.0,19.0,70,0.00,,---,0.00,VWS V14.01,2013-05-08 18:04:00,
2013-05-08 13:09:00,79.8,69.2,29.95,SSE,151,11.0,13.0,70,0.00,,---,0.00,VWS V14.01,2013-05-08 18:09:00,
2013-05-08 13:14:00,79.8,69.6,29.94,SSE,149,15.0,16.0,71,0.00,,---,0.00,VWS V14.01,2013-05-08 18:14:00,
2013-05-08 13:19:00,80.2,68.7,29.95,SSE,150,10.0,14.0,68,0.00,,---,0.00,VWS V14.01,2013-05-08 18:19:00,
2013-05-08 13:24:00,80.2,69.5,29.94,SE,130,10.0,18.0,70,0.00,,---,0.00,VWS V14.01,2013-05-08 18:24:00,
2013-05-08 13:28:00,80.0,68.9,29.94,ESE,104,11.0,14.0,69,0.00,,---,0.00,VWS V14.01,2013-05-08 18:28:00,
2013-05-08 13:33:00,79.8,69.2,29.94,ESE,119,12.0,14.0,70,0.00,,---,0.00,VWS V14.01,2013-05-08 18:33:00,
2013-05-08 13:38:00,79.7,69.1,29.94,SE,135,7.0,16.0,70,0.00,,---,0.00,VWS V14.01,2013-05-08 18:38:00,
2013-05-08 13:43:00,79.9,68.8,29.94,South,172,10.0,12.0,69,0.00,,---,0.00,VWS V14.01,2013-05-08 18:43:00,
2013-05-08 13:48:00,79.9,69.2,29.94,SE,136,12.0,18.0,70,0.00,,---,0.00,VWS V14.01,2013-05-08 18:48:00,
2013-05-08 13:53:00,79.9,68.4,29.93,ESE,121,17.0,17.0,68,0.00,,---,0.00,VWS V14.01,2013-05-08 18:53:00,
2013-05-08 13:58:00,79.6,68.5,29.94,SE,146,12.0,17.0,69,0.00,,---,0.00,VWS V14.01,2013-05-08 18:58:00,
2013-05-08 14:03:00,79.8,69.2,29.93,East,98,13.0,13.0,70,0.00,,---,0.00,VWS V14.01,2013-05-08 19:03:00,
2013-05-08 14:08:00,79.8,68.7,29.93,SE,126,13.0,17.0,69,0.00,,---,0.00,VWS V14.01,2013-05-08 19:08:00,
2013-05-08 14:13:00,79.6,69.4,29.93,SE,144,9.0,9.0,71,0.00,,---,0.00,VWS V14.01,2013-05-08 19:13:00,
2013-05-08 14:18:00,79.4,69.2,29.93,ESE,106,9.0,15.0,71,0.00,,---,0.00,VWS V14.01,2013-05-08 19:18:00,
2013-05-08 14:23:00,79.5,69.3,29.92,ESE,102,7.0,14.0,71,0.00,,---,0.00,VWS V14.01,2013-05-08 19:23:00,
2013-05-08 14:28:00,79.5,69.3,29.93,SE,138,10.0,16.0,71,0.00,,---,0.00,VWS V14.01,2013-05-08 19:28:00,
2013-05-08 14:33:00,79.9,69.2,29.92,East,101,11.0,13.0,70,0.00,,---,0.00,VWS V14.01,2013-05-08 19:33:00,
2013-05-08 14:38:00,79.8,69.2,29.92,ESE,103,14.0,15.0,70,0.00,,---,0.00,VWS V14.01,2013-05-08 19:38:00,
2013-05-08 14:43:00,79.6,69.4,29.92,SE,126,6.0,12.0,71,0.00,,---,0.00,VWS V14.01,2013-05-08 19:43:00,
2013-05-08 14:48:00,79.8,70.0,29.92,SE,130,20.0,20.0,72,0.00,,---,0.00,VWS V14.01,2013-05-08 19:48:00,
2013-05-08 14:53:00,79.8,69.6,29.92,ESE,117,15.0,15.0,71,0.00,,---,0.00,VWS V14.01,2013-05-08 19:53:00,
2013-05-08 14:58:00,79.5,69.7,29.92,SE,133,13.0,15.0,72,0.00,,---,0.00,VWS V14.01,2013-05-08 19:58:00,
2013-05-08 15:03:00,78.9,69.1,29.92,ESE,119,17.0,17.0,72,0.00,,---,0.00,VWS V14.01,2013-05-08 20:03:00,
2013-05-08 15:08:00,78.6,69.2,29.91,ESE,119,11.0,13.0,73,0.00,,---,0.00,VWS V14.01,2013-05-08 20:08:00,
2013-05-08 15:13:00,78.9,69.5,29.91,SE,140,9.0,11.0,73,0.00,,---,0.00,VWS V14.01,2013-05-08 20:13:00,
2013-05-08 15:18:00,79.0,69.2,29.91,ESE,104,12.0,17.0,72,0.00,,---,0.00,VWS V14.01,2013-05-08 20:18:00,
2013-05-08 15:23:00,78.3,68.9,29.91,SE,138,10.0,14.0,73,0.00,,---,0.00,VWS V14.01,2013-05-08 20:23:00,
2013-05-08 15:28:00,78.4,68.6,29.91,ESE,117,7.0,8.0,72,0.00,,---,0.00,VWS V14.01,2013-05-08 20:28:00,
2013-05-08 15:33:00,78.5,69.5,29.91,SE,129,12.0,14.0,74,0.00,,---,0.00,VWS V14.01,2013-05-08 20:33:00,
2013-05-08 15:38:00,78.6,69.6,29.90,East,97,11.0,14.0,74,0.00,,---,0.00,VWS V14.01,2013-05-08 20:38:00,
2013-05-08 15:43:00,78.5,69.1,29.90,SSE,160,13.0,16.0,73,0.00,,---,0.00,VWS V14.01,2013-05-08 20:43:00,
2013-05-08 15:48:00,78.2,69.2,29.90,ESE,123,10.0,16.0,74,0.00,,---,0.00,VWS V14.01,2013-05-08 20:48:00,
2013-05-08 15:53:00,78.2,69.2,29.90,ESE,120,8.0,17.0,74,0.00,,---,0.00,VWS V14.01,2013-05-08 20:53:00,
2013-05-08 15:58:00,78.9,69.9,29.90,SE,128,20.0,22.0,74,0.00,,---,0.00,VWS V14.01,2013-05-08 20:58:00,
2013-05-08 16:03:00,79.1,69.3,29.90,East,97,13.0,17.0,72,0.00,,---,0.00,VWS V14.01,2013-05-08 21:03:00,
2013-05-08 16:08:00,78.9,69.9,29.89,ESE,118,10.0,15.0,74,0.00,,---,0.00,VWS V14.01,2013-05-08 21:08:00,
2013-05-08 16:13:00,78.9,69.5,29.90,SE,140,18.0,18.0,73,0.00,,---,0.00,VWS V14.01,2013-05-08 21:13:00,
2013-05-08 16:18:00,78.5,69.9,29.90,ESE,115,11.0,19.0,75,0.00,,---,0.00,VWS V14.01,2013-05-08 21:18:00,
2013-05-08 16:23:00,79.0,69.6,29.89,SSE,148,15.0,22.0,73,0.00,,---,0.00,VWS V14.01,2013-05-08 21:23:00,
2013-05-08 16:28:00,78.4,69.4,29.89,SSE,152,12.0,17.0,74,0.00,,---,0.00,VWS V14.01,2013-05-08 21:28:00,
2013-05-08 16:33:00,78.3,70.1,29.89,SE,140,13.0,21.0,76,0.00,,---,0.00,VWS V14.01,2013-05-08 21:33:00,
2013-05-08 16:38:00,78.5,69.9,29.89,East,92,16.0,21.0,75,0.00,,---,0.00,VWS V14.01,2013-05-08 21:38:00,
2013-05-08 16:43:00,78.0,69.8,29.90,SE,141,11.0,18.0,76,0.00,,---,0.00,VWS V14.01,2013-05-08 21:43:00,
2013-05-08 16:48:00,77.9,69.7,29.90,SE,134,11.0,16.0,76,0.00,,---,0.00,VWS V14.01,2013-05-08 21:48:00,
2013-05-08 16:53:00,78.2,69.6,29.90,ESE,121,6.0,15.0,75,0.00,,---,0.00,VWS V14.01,2013-05-08 21:53:00,
2013-05-08 16:58:00,78.1,69.9,29.90,SE,140,16.0,20.0,76,0.00,,---,0.00,VWS V14.01,2013-05-08 21:58:00,
2013-05-08 17:03:00,77.4,69.2,29.90,SE,129,18.0,22.0,76,0.00,,---,0.00,VWS V14.01,2013-05-08 22:03:00,
2013-05-08 17:08:00,77.3,69.5,29.90,SE,144,18.0,18.0,77,0.00,,---,0.00,VWS V14.01,2013-05-08 22:08:00,
2013-05-08 17:13:00,77.6,70.2,29.89,ESE,119,7.0,18.0,78,0.00,,---,0.00,VWS V14.01,2013-05-08 22:13:00,
2013-05-08 17:18:00,77.9,70.1,29.89,ESE,113,12.0,16.0,77,0.00,,---,0.00,VWS V14.01,2013-05-08 22:18:00,
2013-05-08 17:23:00,77.6,69.8,29.89,SSE,149,12.0,16.0,77,0.00,,---,0.00,VWS V14.01,2013-05-08 22:23:00,
2013-05-08 17:28:00,77.4,69.6,29.88,ESE,113,14.0,14.0,77,0.00,,---,0.00,VWS V14.01,2013-05-08 22:28:00,
2013-05-08 17:33:00,77.2,69.8,29.88,SE,146,11.0,16.0,78,0.00,,---,0.00,VWS V14.01,2013-05-08 22:33:00,
2013-05-08 17:38:00,77.3,69.9,29.88,ESE,114,13.0,17.0,78,0.00,,---,0.00,VWS V14.01,2013-05-08 22:38:00,
2013-05-08 17:43:00,77.4,70.0,29.88,ESE,107,11.0,17.0,78,0.00,,---,0.00,VWS V14.01,2013-05-08 22:43:00,
2013-05-08 17:48:00,77.6,69.8,29.88,ESE,120,12.0,19.0,77,0.00,,---,0.00,VWS V14.01,2013-05-08 22:48:00,
2013-05-08 17:53:00,77.7,70.3,29.88,SE,143,10.0,16.0,78,0.00,,---,0.00,VWS V14.01,2013-05-08 22:53:00,
2013-05-08 17:58:00,77.3,69.9,29.88,SE,134,9.0,16.0,78,0.00,,---,0.00,VWS V14.01,2013-05-08 22:58:00,
2013-05-08 18:03:00,76.8,69.8,29.88,ESE,116,8.0,17.0,79,0.00,,---,0.00,VWS V14.01,2013-05-08 23:03:00,
2013-05-08 18:08:00,76.6,70.0,29.88,SE,145,10.0,11.0,80,0.00,,---,0.00,VWS V14.01,2013-05-08 23:08:00,
2013-05-08 18:13:00,76.7,70.1,29.88,ESE,122,10.0,16.0,80,0.00,,---,0.00,VWS V14.01,2013-05-08 23:13:00,
2013-05-08 18:18:00,76.3,69.7,29.88,ESE,117,11.0,15.0,80,0.00,,---,0.00,VWS V14.01,2013-05-08 23:18:00,
2013-05-08 18:23:00,76.1,69.8,29.87,ESE,106,10.0,14.0,81,0.00,,---,0.00,VWS V14.01,2013-05-08 23:23:00,
2013-05-08 18:28:00,75.9,70.0,29.87,SE,130,13.0,15.0,82,0.00,,---,0.00,VWS V14.01,2013-05-08 23:28:00,
2013-05-08 18:33:00,75.7,69.5,29.88,ESE,121,15.0,21.0,81,0.00,,---,0.00,VWS V14.01,2013-05-08 23:33:00,
2013-05-08 18:38:00,75.6,69.7,29.88,SE,136,10.0,10.0,82,0.00,,---,0.00,VWS V14.01,2013-05-08 23:38:00,
2013-05-08 18:43:00,75.7,69.8,29.88,SE,133,11.0,17.0,82,0.00,,---,0.00,VWS V14.01,2013-05-08 23:43:00,
2013-05-08 18:48:00,75.7,69.8,29.88,ESE,123,11.0,13.0,82,0.00,,---,0.00,VWS V14.01,2013-05-08 23:48:00,
2013-05-08 18:53:00,75.6,69.7,29.88,ESE,123,9.0,12.0,82,0.00,,---,0.00,VWS V14.01,2013-05-08 23:53:00,
2013-05-08 18:58:00,75.3,69.8,29.88,SE,131,18.0,18.0,83,0.00,,---,0.00,VWS V14.01,2013-05-08 23:58:00,
2013-05-08 19:02:00,75.2,69.7,29.89,SSE,148,15.0,15.0,83,0.00,,---,0.00,VWS V14.01,2013-05-09 00:02:00,
2013-05-08 19:07:00,75.1,69.6,29.89,SE,129,6.0,12.0,83,0.00,,---,0.00,VWS V14.01,2013-05-09 00:07:00,
2013-05-08 19:12:00,75.1,69.6,29.89,ESE,120,13.0,13.0,83,0.00,,---,0.00,VWS V14.01,2013-05-09 00:12:00,
2013-05-08 19:17:00,75.0,69.8,29.88,SSE,148,16.0,18.0,84,0.00,,---,0.00,VWS V14.01,2013-05-09 00:17:00,
2013-05-08 19:22:00,75.0,69.8,29.89,SE,130,7.0,11.0,84,0.00,,---,0.00,VWS V14.01,2013-05-09 00:22:00,
2013-05-08 19:27:00,74.9,69.7,29.89,SE,130,9.0,14.0,84,0.00,,---,0.00,VWS V14.01,2013-05-09 00:27:00,
2013-05-08 19:32:00,74.8,69.7,29.88,SE,134,13.0,15.0,84,0.00,,---,0.00,VWS V14.01,2013-05-09 00:32:00,
2013-05-08 19:37:00,74.7,69.9,29.88,SSE,150,10.0,13.0,85,0.00,,---,0.00,VWS V14.01,2013-05-09 00:37:00,
2013-05-08 19:42:00,74.6,69.8,29.88,SE,141,10.0,14.0,85,0.00,,---,0.00,VWS V14.01,2013-05-09 00:42:00,
2013-05-08 19:47:00,74.4,69.6,29.88,SSE,147,7.0,13.0,85,0.00,,---,0.00,VWS V14.01,2013-05-09 00:47:00,
2013-05-08 19:52:00,74.3,69.5,29.88,ESE,116,12.0,15.0,85,0.00,,---,0.00,VWS V14.01,2013-05-09 00:52:00,
2013-05-08 19:57:00,74.3,69.5,29.88,SE,126,13.0,13.0,85,0.00,,---,0.00,VWS V14.01,2013-05-09 00:57:00,
2013-05-08 20:02:00,74.2,69.8,29.89,SE,126,9.0,9.0,86,0.00,,---,0.00,VWS V14.01,2013-05-09 01:02:00,
2013-05-08 20:07:00,74.0,69.6,29.89,SE,130,7.0,14.0,86,0.00,,---,0.00,VWS V14.01,2013-05-09 01:07:00,
2013-05-08 20:12:00,73.9,69.4,29.89,ESE,113,7.0,11.0,86,0.00,,---,0.00,VWS V14.01,2013-05-09 01:12:00,
2013-05-08 20:17:00,73.8,69.3,29.89,ESE,115,11.0,13.0,86,0.00,,---,0.00,VWS V14.01,2013-05-09 01:17:00,
2013-05-08 20:22:00,73.8,69.7,29.89,SE,133,6.0,7.0,87,0.00,,---,0.00,VWS V14.01,2013-05-09 01:22:00,
2013-05-08 20:27:00,73.7,69.6,29.89,SE,126,11.0,12.0,87,0.00,,---,0.00,VWS V14.01,2013-05-09 01:27:00,
2013-05-08 20:32:00,73.7,69.6,29.89,ESE,123,8.0,10.0,87,0.00,,---,0.00,VWS V14.01,2013-05-09 01:32:00,
2013-05-08 20:37:00,73.6,69.8,29.90,ESE,117,3.0,5.0,88,0.00,,---,0.00,VWS V14.01,2013-05-09 01:37:00,
2013-05-08 20:42:00,73.5,69.7,29.90,ESE,117,4.0,5.0,88,0.00,,---,0.00,VWS V14.01,2013-05-09 01:42:00,
2013-05-08 20:47:00,73.5,69.7,29.90,ESE,106,9.0,9.0,88,0.00,,---,0.00,VWS V14.01,2013-05-09 01:47:00,
2013-05-08 20:52:00,73.5,69.7,29.90,ESE,117,6.0,12.0,88,0.00,,---,0.00,VWS V14.01,2013-05-09 01:52:00,
2013-05-08 20:57:00,73.5,70.1,29.90,SE,126,6.0,10.0,89,0.00,,---,0.00,VWS V14.01,2013-05-09 01:57:00,
2013-05-08 21:02:00,73.5,70.1,29.90,ESE,121,5.0,5.0,89,0.00,,---,0.00,VWS V14.01,2013-05-09 02:02:00,
2013-05-08 21:07:00,73.4,70.0,29.90,ESE,107,7.0,12.0,89,0.00,,---,0.00,VWS V14.01,2013-05-09 02:07:00,
2013-05-08 21:12:00,73.4,70.0,29.90,SE,142,9.0,12.0,89,0.00,,---,0.00,VWS V14.01,2013-05-09 02:12:00,
2013-05-08 21:17:00,73.4,70.0,29.90,ESE,122,5.0,6.0,89,0.00,,---,0.00,VWS V14.01,2013-05-09 02:17:00,
2013-05-08 21:22:00,73.4,70.0,29.91,ESE,121,2.0,2.0,89,0.00,,---,0.00,VWS V14.01,2013-05-09 02:22:00,
2013-05-08 21:27:00,73.4,70.0,29.91,SE,146,4.0,4.0,89,0.00,,---,0.00,VWS V14.01,2013-05-09 02:27:00,
2013-05-08 21:32:00,73.4,70.0,29.91,SE,140,5.0,7.0,89,0.00,,---,0.00,VWS V14.01,2013-05-09 02:32:00,
2013-05-08 21:37:00,73.4,70.3,29.90,SE,127,4.0,12.0,90,0.00,,---,0.00,VWS V14.01,2013-05-09 02:37:00,
2013-05-08 21:42:00,73.4,70.3,29.90,SSE,159,6.0,7.0,90,0.00,,---,0.00,VWS V14.01,2013-05-09 02:42:00,
2013-05-08 21:47:00,73.4,70.3,29.90,SE,137,7.0,11.0,90,0.00,,---,0.00,VWS V14.01,2013-05-09 02:47:00,
2013-05-08 21:52:00,73.4,70.3,29.90,SE,128,14.0,14.0,90,0.00,,---,0.00,VWS V14.01,2013-05-09 02:52:00,
2013-05-08 21:57:00,73.4,70.3,29.90,East,98,9.0,11.0,90,0.00,,---,0.00,VWS V14.01,2013-05-09 02:57:00,
2013-05-08 22:02:00,73.4,70.3,29.90,SE,137,9.0,10.0,90,0.00,,---,0.00,VWS V14.01,2013-05-09 03:02:00,
2013-05-08 22:07:00,73.4,70.3,29.90,SSE,164,9.0,15.0,90,0.00,,---,0.00,VWS V14.01,2013-05-09 03:07:00,
2013-05-08 22:12:00,73.4,70.3,29.90,ESE,119,8.0,15.0,90,0.00,,---,0.00,VWS V14.01,2013-05-09 03:12:00,
2013-05-08 22:17:00,73.3,70.2,29.90,SE,141,11.0,14.0,90,0.00,,---,0.00,VWS V14.01,2013-05-09 03:17:00,
2013-05-08 22:22:00,73.3,70.2,29.90,SSE,147,9.0,9.0,90,0.00,,---,0.00,VWS V14.01,2013-05-09 03:22:00,
2013-05-08 22:27:00,73.2,70.1,29.90,SE,142,13.0,15.0,90,0.00,,---,0.00,VWS V14.01,2013-05-09 03:27:00,
2013-05-08 22:32:00,73.2,70.1,29.90,SE,131,13.0,19.0,90,0.00,,---,0.00,VWS V14.01,2013-05-09 03:32:00,
2013-05-08 22:37:00,73.2,70.1,29.90,SSE,147,10.0,13.0,90,0.00,,---,0.00,VWS V14.01,2013-05-09 03:37:00,
2013-05-08 22:42:00,73.3,70.2,29.91,SE,136,14.0,17.0,90,0.00,,---,0.00,VWS V14.01,2013-05-09 03:42:00,
2013-05-08 22:47:00,73.3,70.2,29.91,SSE,149,9.0,11.0,90,0.00,,---,0.00,VWS V14.01,2013-05-09 03:47:00,
2013-05-08 22:52:00,73.2,70.1,29.91,SE,144,13.0,16.0,90,0.00,,---,0.00,VWS V14.01,2013-05-09 03:52:00,
2013-05-08 22:57:00,73.2,70.1,29.91,SE,138,11.0,11.0,90,0.00,,---,0.00,VWS V14.01,2013-05-09 03:57:00,
2013-05-08 23:01:00,73.1,70.0,29.91,SE,131,10.0,12.0,90,0.00,,---,0.00,VWS V14.01,2013-05-09 04:01:00,
2013-05-08 23:06:00,73.1,70.0,29.91,SE,132,7.0,10.0,90,0.00,,---,0.00,VWS V14.01,2013-05-09 04:06:00,
2013-05-08 23:11:00,73.0,69.9,29.91,ESE,117,5.0,12.0,90,0.00,,---,0.00,VWS V14.01,2013-05-09 04:11:00,
2013-05-08 23:16:00,73.0,69.9,29.91,SE,138,6.0,12.0,90,0.00,,---,0.00,VWS V14.01,2013-05-09 04:16:00,
2013-05-08 23:21:00,73.0,69.9,29.91,SE,136,5.0,12.0,90,0.00,,---,0.00,VWS V14.01,2013-05-09 04:21:00,
2013-05-08 23:26:00,73.0,69.9,29.91,SE,137,7.0,11.0,90,0.00,,---,0.00,VWS V14.01,2013-05-09 04:26:00,
2013-05-08 23:31:00,73.0,70.2,29.91,SE,145,10.0,11.0,91,0.00,,---,0.00,VWS V14.01,2013-05-09 04:31:00,
2013-05-08 23:36:00,72.9,70.1,29.92,SE,146,8.0,11.0,91,0.00,,---,0.00,VWS V14.01,2013-05-09 04:36:00,
2013-05-08 23:41:00,72.9,70.1,29.92,SE,141,2.0,6.0,91,0.00,,---,0.00,VWS V14.01,2013-05-09 04:41:00,
2013-05-08 23:46:00,72.9,70.1,29.92,SE,132,11.0,12.0,91,0.00,,---,0.00,VWS V14.01,2013-05-09 04:46:00,
2013-05-08 23:51:00,73.0,70.2,29.92,SE,136,10.0,10.0,91,0.00,,---,0.00,VWS V14.01,2013-05-09 04:51:00,
2013-05-08 23:56:00,73.0,70.2,29.91,SE,125,9.0,10.0,91,0.00,,---,0.00,VWS V14.01,2013-05-09 04:56:00,